Atqasuk Edward Burnell Sr Mem, AK

2:11 PM AKST on December 06, 2019 (GMT -0900)
Atqasuk Edward Burnell Sr Mem

Weather History for PATQ - September, 2019

Change the Weather History Date:

Tuesday, September 3, 2019

  Actual Average (PABR) Record (PABR)
Temperature  
Mean Temperature 50 °F 36 °F  
Max Temperature 57 °F 40 °F 53 °F (2000)
Min Temperature 42 °F 32 °F 20 °F (1955)
Degree Days  
Heating Degree Days 16 29  
Month to date heating degree days 86  
Since 1 July heating degree days 1641  
Cooling Degree Days 0 0  
Month to date cooling degree days 0  
Year to date cooling degree days 0  
Moisture  
Dew Point 45 °F    
Average Humidity 90    
Maximum Humidity 100    
Minimum Humidity 67    
Precipitation  
Precipitation 0.00 in 0.03 in 0.41 in (2002)
Month to date precipitation 0.09  
Year to date precipitation 3.14  
Snow  
Snow 0.00 in 0.00 in 2.40 in (1993)
Month to date snowfall 0.2  
Since 1 July snowfall 1.3  
Since 1 September snowfall 0.2  
Snow Depth -    
Sea Level Pressure  
Sea Level Pressure 29.63 in    
Wind  
Wind Speed 5 mph (NW)    
Max Wind Speed 12 mph    
Max Gust Speed -    
Visibility 8 miles    
Events      
T = Trace of Precipitation, MM = Missing Value Source: NWS Daily Summary

Daily Weather History Graph

Daily Weather History Graph

Search for Another Location

Airport or City:

Astronomy

Sep. 03, 2019 Rise Set
Actual Time 6:51 AM AKDT 10:04 PM AKDT
Civil Twilight 5:35 AM AKDT 11:18 PM AKDT
Nautical Twilight 3:01 AM AKDT 1:47 AM AKDT
Astronomical Twilight Sun does not rise Sun does not rise
Moon 2:54 PM AKDT (9/3) 9:59 PM AKDT (9/3)
Length of Visible Light 17h 43m
Length of Day
15h 13m
Waxing Crescent, 26% of the Moon is Illuminated
Sep 3
Waxing Crescent
Sep 5
First Quarter
Sep 13
Full
Sep 21
Last Quarter
Sep 28
New

Hourly Weather History & Observations

Time (AKDT) Temp. Windchill Dew Point Humidity Pressure Visibility Wind Dir Wind Speed Gust Speed Precip Events Conditions
12:56 AM 45.0 °F 41.2 °F 44.1 °F 97% 29.51 in 10.0 mi ENE 6.9 mph - N/A   Clear
1:56 AM 45.0 °F - 44.1 °F 97% 29.52 in 10.0 mi Calm Calm - N/A   Clear
2:56 AM 43.0 °F 41.3 °F 43.0 °F 100% 29.53 in 8.0 mi NW 3.5 mph - N/A   Clear
3:56 AM 43.0 °F - 42.1 °F 97% 29.54 in 7.0 mi Calm Calm - N/A   Clear
5:56 AM 42.1 °F 35.7 °F 41.0 °F 96% 29.57 in 6.0 mi West 11.5 mph - N/A   Clear
6:56 AM 42.1 °F 38.4 °F 41.0 °F 96% 29.58 in 5.0 mi West 5.8 mph - N/A   Overcast
7:56 AM 43.0 °F 38.2 °F 42.1 °F 97% 29.59 in 5.0 mi WNW 8.1 mph - N/A   Overcast
9:56 AM 45.0 °F 41.8 °F 44.1 °F 97% 29.63 in 5.0 mi SSW 5.8 mph - N/A   Overcast
10:13 AM 44.6 °F 41.4 °F 44.6 °F 100% 29.61 in 6.0 mi SW 5.8 mph - N/A   Overcast
10:20 AM 44.6 °F 40.7 °F 44.6 °F 100% 29.61 in 6.0 mi SW 6.9 mph - N/A   Overcast
10:56 AM 45.0 °F 41.8 °F 44.1 °F 97% 29.64 in 7.0 mi WNW 5.8 mph - N/A   Mostly Cloudy
12:56 PM 48.0 °F - 46.0 °F 93% 29.67 in 9.0 mi West 3.5 mph - N/A   Scattered Clouds
1:56 PM 51.1 °F - 46.0 °F 83% 29.68 in 9.0 mi NW 3.5 mph - N/A   Clear
2:56 PM 53.1 °F - 46.9 °F 80% 29.68 in 9.0 mi Calm Calm - N/A   Clear
3:56 PM 55.0 °F - 46.0 °F 72% 29.68 in 10.0 mi Variable 3.5 mph - N/A   Clear
5:56 PM 57.0 °F - 46.9 °F 69% 29.69 in 10.0 mi East 3.5 mph - N/A   Mostly Cloudy
6:56 PM 57.9 °F - 46.9 °F 67% 29.70 in 10.0 mi NNE 5.8 mph - N/A   Overcast
7:56 PM 57.0 °F - 48.0 °F 72% 29.70 in 10.0 mi NE 8.1 mph - N/A   Mostly Cloudy
8:56 PM 54.0 °F - 48.0 °F 80% 29.71 in 9.0 mi NE 10.4 mph - N/A   Overcast
10:56 PM 48.0 °F - 46.0 °F 93% 29.73 in 9.0 mi NE 10.4 mph - N/A   Scattered Clouds
11:56 PM 46.9 °F - 46.0 °F 97% 29.74 in 10.0 mi NNE 9.2 mph - N/A   Overcast